MDT,Max TemperatureF,Mean TemperatureF,Min TemperatureF,Max Dew PointF,MeanDew PointF,Min DewpointF,Max Humidity, Mean Humidity, Min Humidity, Max Sea Level PressureIn, Mean Sea Level PressureIn, Min Sea Level PressureIn, Max VisibilityMiles, Mean VisibilityMiles, Min VisibilityMiles, Max Wind SpeedMPH, Mean Wind SpeedMPH, Max Gust SpeedMPH,PrecipitationIn, CloudCover, Events, WindDirDegrees
2013-5-1,44,37,29,31,28,22,100,72,43,30.69,30.41,30.17,10,4,0,17,7,22,0.27,6,Fog-Snow,263
2013-5-2,56,42,27,29,23,12,92,56,19,30.73,30.57,30.35,10,10,10,13,4,15,0.00,0,,156
2013-5-3,66,48,30,32,24,11,85,48,11,30.34,30.17,30.05,10,10,6,17,5,23,0.00,3,,349
2013-5-4,61,51,40,43,39,33,96,68,39,30.21,30.14,30.07,10,10,2,21,9,28,0.15,6,Rain,342
2013-5-5,64,50,35,42,36,30,100,65,30,30.21,30.11,29.99,10,10,7,12,4,15,0.00,2,,179
2013-5-6,73,56,38,38,34,27,85,52,19,30.02,29.93,29.83,10,10,10,13,5,14,0.00,0,,142
2013-5-7,77,59,40,41,31,15,76,43,10,29.86,29.81,29.75,10,10,10,17,4,22,0.00,1,,173
2013-5-8,76,60,44,41,34,23,77,46,15,30.03,29.96,29.85,10,10,10,18,7,23,0.00,2,,106
2013-5-9,75,58,41,40,35,27,76,47,17,30.10,30.05,29.99,10,10,10,23,5,30,0.00,1,,117
2013-5-10,76,59,41,39,35,27,82,50,17,30.25,30.16,30.08,10,10,10,36,7,51,0.01,1,,357
2013-5-11,75,58,41,39,32,24,76,46,15,30.33,30.21,30.08,10,10,10,12,3,13,0.00,1,,67
2013-5-12,84,65,46,43,35,30,65,40,15,30.10,30.01,29.91,10,10,10,13,5,14,0.00,0,,138
2013-5-13,91,73,54,43,36,28,61,36,10,29.99,29.86,29.71,10,10,10,16,6,21,0.00,0,,197
2013-5-14,89,73,56,43,32,14,49,28,6,29.81,29.72,29.63,10,10,10,23,9,30,0.00,0,,317
2013-5-15,79,64,49,46,35,26,56,38,19,29.92,29.80,29.70,10,10,10,18,5,24,T,1,,222
2013-5-16,74,62,49,54,46,38,77,54,31,29.86,29.75,29.68,10,10,5,32,5,41,0.01,4,Rain-Thunderstorm,32
2013-5-17,75,62,49,54,49,46,96,67,38,29.87,29.77,29.61,10,10,2,43,6,51,0.12,2,Rain-Thunderstorm,12
2013-5-18,63,55,47,52,47,44,100,76,52,29.90,29.84,29.79,10,8,2,22,9,30,0.01,6,Rain-Thunderstorm,342
2013-5-19,59,54,48,49,46,42,93,78,62,29.96,29.89,29.83,10,9,2,22,16,30,0.21,8,Rain,329
2013-5-20,64,56,48,45,39,28,86,57,28,30.07,30.00,29.93,10,10,10,30,21,41,0.00,4,,329
2013-5-21,69,54,38,38,29,13,92,52,11,30.07,29.94,29.81,10,10,10,21,6,25,0.00,2,,347
2013-5-22,77,59,40,45,39,35,79,51,23,29.86,29.77,29.66,10,10,10,35,10,45,0.00,0,Thunderstorm,80
2013-5-23,85,66,46,49,43,40,80,52,23,29.79,29.67,29.51,10,10,10,35,12,41,0.00,0,,92
2013-5-24,78,61,44,49,32,4,92,49,6,29.91,29.81,29.67,10,10,10,21,8,29,0.00,1,,220
2013-5-25,85,65,44,39,27,15,56,32,8,29.85,29.77,29.65,10,10,10,23,6,28,0.00,0,,259
2013-5-26,83,64,45,43,40,33,76,47,17,29.88,29.78,29.64,10,10,10,28,4,36,0.00,0,Thunderstorm,340
2013-5-27,72,59,45,48,40,31,74,49,23,29.92,29.74,29.68,10,10,7,28,8,38,0.04,1,Rain-Thunderstorm,20
2013-5-28,74,58,42,47,38,31,72,48,23,29.72,29.63,29.53,10,10,10,35,6,41,T,2,,192
2013-5-29,57,54,50,50,47,44,96,81,66,29.68,29.63,29.57,10,8,2,18,9,22,0.30,8,Rain,313
2013-5-30,59,54,49,48,43,38,93,70,47,29.81,29.68,29.60,10,10,10,24,8,30,T,6,Rain,334
2013-5-31,60,54,47,42,39,37,74,61,47,30.17,29.95,29.80,10,10,10,32,13,43,0.00,8,,360